Akron Canton, OH

5:00 PM EDT on March 23, 2017 (GMT -0400)
Akron-Canton Regional

Weather History for KCAK - September, 2013

Change the Weather History Date:

Monday, September 16, 2013

  Actual Average Record
Temperature  
Mean Temperature 59 °F 63 °F  
Max Temperature 70 °F 73 °F 95 °F (1939)
Min Temperature 48 °F 53 °F 37 °F (1923)
Degree Days  
Heating Degree Days 6 4  
Month to date heating degree days 39 33  
Since 1 July heating degree days 52 53  
Cooling Degree Days 0 2  
Month to date cooling degree days 64 48  
Year to date cooling degree days 788 630  
Growing Degree Days 10 (Base 50)    
Moisture  
Dew Point 52 °F    
Average Humidity 74    
Maximum Humidity 93    
Minimum Humidity 55    
Precipitation  
Precipitation 0.02 in 0.12 in 1.76 in (2010)
Month to date precipitation 1.58 1.90  
Year to date precipitation 28.65 29.10  
Snow  
Snow 0.00 in 0.00 in - ()
Month to date snowfall 0.0 0.0  
Since 1 July snowfall 0.0 0.0  
Since 1 September snowfall 0.0 0.0  
Snow Depth 0.00 in    
Sea Level Pressure  
Sea Level Pressure 30.21 in    
Wind  
Wind Speed 6 mph (North)    
Max Wind Speed 20 mph    
Max Gust Speed 40 mph    
Visibility 8 miles    
Events Rain    
T = Trace of Precipitation, MM = Missing Value Source: NWS Daily Summary

Daily Weather History Graph

Daily Weather History Graph

Search for Another Location

Airport or City:

Trip Planner

Search our weather history database for the weather conditions in past years. The results will help you decide how hot, cold, wet, or windy it might be!

Date:

Astronomy

Sep. 16, 2013 Rise Set
Actual Time 7:07 AM EDT 7:32 PM EDT
Civil Twilight 6:40 AM EDT 8:00 PM EDT
Nautical Twilight 6:07 AM EDT 8:32 PM EDT
Astronomical Twilight 5:34 AM EDT 9:05 PM EDT
Moon 5:41 PM EDT (9/16) 3:51 AM EDT (9/16)
Length of Visible Light 13h 20m
Length of Day
12h 25m
Waxing Gibbous, 90% of the Moon is Illuminated
Sep 16
Waxing Gibbous
Sep 19
Full
Sep 26
Last Quarter
Oct 4
New
Oct 11
First Quarter

Hourly Weather History & Observations

Time (EDT) Temp. Dew Point Humidity Pressure Visibility Wind Dir Wind Speed Gust Speed Precip Events Conditions
12:51 AM 57.9 °F 54.0 °F 87% 30.12 in 5.0 mi North 4.6 mph - 0.02 in Rain Rain
1:51 AM 57.9 °F 54.0 °F 87% 30.11 in 7.0 mi NNE 3.5 mph - 0.02 in Rain Light Rain
2:51 AM 57.0 °F 54.0 °F 89% 30.11 in 5.0 mi Calm Calm - 0.01 in Rain Light Rain
3:51 AM 57.0 °F 54.0 °F 89% 30.11 in 6.0 mi Calm Calm - 0.00 in   Overcast
4:51 AM 57.9 °F 55.0 °F 90% 30.12 in 5.0 mi North 5.8 mph - N/A   Overcast
5:24 AM 57.2 °F 55.4 °F 94% 30.14 in 5.0 mi North 4.6 mph - N/A   Overcast
5:49 AM 57.2 °F 55.4 °F 94% 30.15 in 5.0 mi Calm Calm - N/A   Overcast
5:51 AM 57.9 °F 55.0 °F 90% 30.14 in 5.0 mi Calm Calm - N/A   Overcast
6:51 AM 57.0 °F 55.0 °F 93% 30.16 in 5.0 mi Calm Calm - N/A   Overcast
7:51 AM 57.9 °F 55.0 °F 90% 30.18 in 4.0 mi North 3.5 mph - N/A   Overcast
8:51 AM 59.0 °F 55.0 °F 87% 30.20 in 6.0 mi NNE 10.4 mph 40.3 mph N/A   Overcast
9:51 AM 59.0 °F 55.0 °F 87% 30.22 in 7.0 mi Calm Calm - 0.00 in   Overcast
10:51 AM 63.0 °F 55.0 °F 75% 30.22 in 10.0 mi NNW 5.8 mph - N/A   Mostly Cloudy
11:51 AM 62.1 °F 54.0 °F 75% 30.24 in 10.0 mi North 4.6 mph - N/A   Mostly Cloudy
12:51 PM 66.9 °F 53.1 °F 61% 30.24 in 10.0 mi North 8.1 mph - N/A   Scattered Clouds
1:51 PM 68.0 °F 51.1 °F 55% 30.23 in 10.0 mi North 6.9 mph - N/A   Scattered Clouds
2:51 PM 66.9 °F 53.1 °F 61% 30.23 in 10.0 mi NNW 13.8 mph - N/A   Scattered Clouds
3:51 PM 68.0 °F 52.0 °F 56% 30.23 in 10.0 mi North 12.7 mph 24.2 mph N/A   Scattered Clouds
4:51 PM 64.9 °F 51.1 °F 61% 30.24 in 10.0 mi North 15.0 mph 20.7 mph N/A   Scattered Clouds
5:51 PM 64.0 °F 48.9 °F 58% 30.25 in 10.0 mi NNE 13.8 mph - N/A   Scattered Clouds
6:51 PM 61.0 °F 50.0 °F 67% 30.27 in 10.0 mi North 11.5 mph - N/A   Scattered Clouds
7:51 PM 55.9 °F 48.9 °F 77% 30.29 in 10.0 mi NNE 9.2 mph - N/A   Partly Cloudy
8:51 PM 53.1 °F 48.0 °F 83% 30.31 in 10.0 mi NNE 6.9 mph - N/A   Clear
9:51 PM 52.0 °F 46.9 °F 83% 30.32 in 10.0 mi North 5.8 mph - N/A   Clear
10:51 PM 51.1 °F 46.9 °F 86% 30.33 in 10.0 mi NNE 4.6 mph - N/A   Scattered Clouds
11:51 PM 50.0 °F 48.0 °F 93% 30.34 in 10.0 mi Calm Calm - N/A   Partly Cloudy